DW6133 Weather Reports


time (UTC)temp
F
wind
direction
speed
knots
gust
knots
rain 1hr
in
rain 24hr
in
rain mn
in
humidity
%
barometer
mb
20260503225035 85 124 0.0 0.0 0.00 0.00 0.00 42 1008.8
20260503224533 85 248 0.0 0.0 0.00 0.00 0.00 42 1008.9
20260503224033 86 118 0.0 0.0 0.00 0.00 0.00 41 1009.0
20260503223532 86 156 0.0 0.0 0.00 0.00 0.00 43 1009.1
20260503223031 86 204 0.0 0.0 0.00 0.00 0.00 43 1009.1
20260503222531 86 241 0.0 0.0 0.00 0.00 0.00 41 1009.2
20260503222030 86 114 0.0 0.0 0.00 0.00 0.00 43 1009.2
20260503221538 86 129 0.0 0.0 0.00 0.00 0.00 40 1009.3
20260503221029 87 238 0.0 0.0 0.00 0.00 0.00 40 1009.3
20260503220529 87 263 0.0 0.0 0.00 0.00 0.00 41 1009.4
20260503220028 87 297 0.0 0.0 0.00 0.00 0.00 41 1009.4
20260503215526 87 232 0.0 0.0 0.00 0.00 0.00 42 1009.4
20260503215026 87 201 0.0 0.0 0.00 0.00 0.00 41 1009.5
20260503214526 87 194 0.0 0.0 0.00 0.00 0.00 41 1009.6
20260503214025 87 248 0.0 0.0 0.00 0.00 0.00 40 1009.6
20260503213526 87 218 0.0 0.0 0.00 0.00 0.00 41 1009.7
20260503213030 87 117 0.0 0.0 0.00 0.00 0.00 40 1009.7
20260503212523 87 221 0.0 0.0 0.00 0.00 0.00 42 1009.8
20260503212022 87 224 0.0 0.0 0.00 0.00 0.00 41 1009.8
20260503211522 87 108 0.0 0.0 0.00 0.00 0.00 39 1009.8
20260503211020 87 121 0.0 0.0 0.00 0.00 0.00 43 1009.9
20260503210520 87 294 0.0 0.0 0.00 0.00 0.00 42 1009.9
20260503210019 87 240 0.0 0.0 0.00 0.00 0.00 40 1010.0
20260503205518 87 140 0.0 0.0 0.00 0.00 0.00 42 1010.1
20260503205024 86 236 0.0 0.0 0.00 0.00 0.00 41 1010.1
20260503204523 86 121 0.0 0.0 0.00 0.00 0.00 43 1010.2
20260503204014 85 100 0.0 0.0 0.00 0.00 0.00 45 1010.2
20260503203514 85 242 0.0 0.0 0.00 0.00 0.00 42 1010.3
20260503203011 85 243 0.0 0.0 0.00 0.00 0.00 42 1010.4
20260503202514 85 243 0.0 0.0 0.00 0.00 0.00 43 1010.4
20260503202009 84 235 0.0 0.0 0.00 0.00 0.00 45 1010.5
20260503201523 84 213 0.0 0.0 0.00 0.00 0.00 42 1010.5
20260503201008 84 85 0.0 0.0 0.00 0.00 0.00 45 1010.7
20260503200506 84 232 0.0 0.0 0.00 0.00 0.00 44 1010.7
20260503200004 83 199 0.0 0.0 0.00 0.00 0.00 44 1010.8
20260503195503 83 123 0.0 0.0 0.00 0.00 0.00 45 1010.9
20260503195001 82 257 0.0 0.0 0.00 0.00 0.00 45 1011.0
20260503194503 82 114 0.0 0.0 0.00 0.00 0.00 43 1011.0
20260503194100 82 262 0.0 0.0 0.00 0.00 0.00 46 1011.1
20260503193559 81 215 0.0 0.0 0.00 0.00 0.00 48 1011.1
20260503193118 81 221 0.0 0.0 0.00 0.00 0.00 46 1011.2
20260503192556 81 228 0.0 0.9 0.00 0.00 0.00 45 1011.3
20260503192058 81 233 0.0 0.9 0.00 0.00 0.00 44 1011.4
20260503191600 80 250 0.0 0.9 0.00 0.00 0.00 48 1011.5
20260503191059 80 243 0.0 0.0 0.00 0.00 0.00 45 1011.4
20260503190555 81 266 0.0 0.0 0.00 0.00 0.00 45 1011.4
20260503190054 81 256 0.0 0.0 0.00 0.00 0.00 46 1011.5
20260503185552 81 28 0.0 0.0 0.00 0.00 0.00 46 1011.5
20260503185052 80 249 0.0 0.0 0.00 0.00 0.00 46 1011.6
20260503184551 80 319 0.0 0.0 0.00 0.00 0.00 47 1011.6
20260503184051 80 239 0.0 0.0 0.00 0.00 0.00 45 1011.7
20260503183550 80 240 0.0 0.0 0.00 0.00 0.00 47 1011.8
20260503183049 80 252 0.0 0.0 0.00 0.00 0.00 47 1011.8
20260503182547 79 226 0.0 0.0 0.00 0.00 0.00 49 1011.9
20260503182046 78 134 0.0 0.9 0.00 0.00 0.00 49 1011.9
20260503181617 78 207 0.0 0.9 0.00 0.00 0.00 48 1011.9
20260503181046 78 224 0.0 0.0 0.00 0.00 0.00 48 1011.9
20260503180545 79 183 0.0 0.0 0.00 0.00 0.00 48 1011.9
20260503180045 79 276 0.0 0.0 0.00 0.00 0.00 49 1011.9
20260503175542 78 54 0.0 0.0 0.00 0.00 0.00 52 1012.0
20260503175041 77 44 0.0 0.0 0.00 0.00 0.00 54 1012.1
20260503174541 77 60 0.0 0.0 0.00 0.00 0.00 52 1012.1
20260503174040 77 66 0.0 0.0 0.00 0.00 0.00 53 1012.1
20260503173540 77 76 0.0 0.0 0.00 0.00 0.00 53 1012.1
20260503173051 77 82 0.0 0.0 0.00 0.00 0.00 55 1012.2
20260503172536 76 82 0.0 0.0 0.00 0.00 0.00 57 1012.2
20260503172035 76 68 0.0 0.0 0.00 0.00 0.00 59 1012.3
20260503171534 75 68 0.0 0.0 0.00 0.00 0.00 56 1012.3
20260503171034 75 80 0.0 0.0 0.00 0.00 0.00 57 1012.3
20260503170533 75 65 0.0 0.0 0.00 0.00 0.00 58 1012.3
20260503150558 58 81 0.0 0.0 0.00 0.00 0.00 94 1012.7
20260503150106 57 80 0.0 0.0 0.00 0.00 0.00 94 1012.7
20260503131051 51 160 0.0 0.0 0.00 0.00 0.00 92 1012.4
20260503130553 50 160 0.0 0.0 0.00 0.00 0.00 91 1012.4
20260503110542 52 160 0.0 0.0 0.00 0.00 0.00 87 1012.7
20260503081520 56 141 0.0 0.0 0.00 0.00 0.00 73 1012.8
20260503081020 57 141 0.0 0.0 0.00 0.00 0.00 72 1012.8
20260503080519 57 141 0.0 0.0 0.00 0.00 0.00 72 1012.8
20260503072515 57 141 0.0 0.0 0.00 0.00 0.00 72 1012.7
20260503072015 57 193 0.0 0.0 0.00 0.00 0.00 72 1012.7
20260503071524 57 203 0.0 0.0 0.00 0.00 0.00 72 1012.6
20260503071014 57 203 0.0 0.0 0.00 0.00 0.00 72 1012.7
20260503070514 57 203 0.0 0.0 0.00 0.00 0.00 72 1012.7
20260503055010 59 228 0.0 0.0 0.00 0.00 0.00 70 1012.5
20260503054515 59 228 0.0 0.0 0.00 0.00 0.00 69 1012.5
20260503054013 59 228 0.0 0.0 0.00 0.00 0.00 69 1012.5
20260503053610 59 228 0.0 0.0 0.00 0.00 0.00 68 1012.5
20260503053010 59 228 0.0 0.0 0.00 0.00 0.00 67 1012.6
20260503052512 60 228 0.0 0.0 0.00 0.00 0.00 67 1012.6
20260503052008 60 227 0.0 0.0 0.00 0.00 0.00 67 1012.6
20260503051509 60 228 0.0 0.0 0.00 0.00 0.00 67 1012.5
20260503051017 60 228 0.0 0.0 0.00 0.00 0.00 67 1012.6
20260503050511 60 228 0.0 0.0 0.00 0.00 0.00 66 1012.5
20260503050008 60 227 0.0 0.0 0.00 0.00 0.00 67 1012.5
20260503045510 60 228 0.0 0.0 0.00 0.00 0.00 67 1012.5
20260503045010 60 228 0.0 0.0 0.00 0.00 0.00 67 1012.4
20260503044629 60 228 0.0 0.0 0.00 0.00 0.00 67 1012.4
20260503044007 60 228 0.0 0.0 0.00 0.00 0.00 67 1012.3
20260503043507 61 227 0.0 0.0 0.00 0.00 0.00 67 1012.3
20260503043007 61 227 0.0 0.0 0.00 0.00 0.00 67 1012.3
20260503042506 61 228 0.0 0.0 0.00 0.00 0.00 66 1012.3
20260503042006 61 227 0.0 0.0 0.00 0.00 0.00 66 1012.2
20260503041506 61 227 0.0 0.0 0.00 0.00 0.00 65 1012.2
20260503041006 62 228 0.0 0.0 0.00 0.00 0.00 65 1012.1
20260503040511 62 228 0.0 0.0 0.00 0.00 0.00 65 1012.1
20260503040011 62 227 0.0 0.0 0.00 0.00 0.00 65 1012.0
20260503035506 62 228 0.0 0.0 0.00 0.00 0.00 65 1011.9
20260503035006 63 228 0.0 0.0 0.00 0.00 0.00 65 1011.9
20260503034505 63 228 0.0 0.0 0.00 0.00 0.00 65 1011.8
20260503034007 63 228 0.0 0.0 0.00 0.00 0.00 64 1011.6
20260503033505 63 228 0.0 0.0 0.00 0.00 0.00 63 1011.5
20260503033007 64 95 0.0 0.0 0.00 0.00 0.00 63 1011.5
20260503032504 64 95 0.0 0.0 0.00 0.00 0.00 62 1011.4
20260503032007 64 95 0.0 0.0 0.00 0.00 0.00 61 1011.4
20260503031504 65 95 0.0 0.0 0.00 0.00 0.00 60 1011.3
20260503031004 65 95 0.0 0.0 0.00 0.00 0.00 60 1011.3
20260503030503 65 94 0.0 0.0 0.00 0.00 0.00 60 1011.3
20260503030004 65 76 0.0 0.0 0.00 0.00 0.00 60 1011.3
20260503025505 66 262 0.0 0.0 0.00 0.00 0.00 60 1011.2
20260503025003 67 114 0.0 0.0 0.00 0.00 0.00 60 1011.2
20260503024503 67 114 0.0 0.0 0.00 0.00 0.00 60 1011.1
20260503024003 68 114 0.0 0.0 0.00 0.00 0.00 59 1011.1
20260503023504 69 9 0.0 0.0 0.00 0.00 0.00 58 1011.1
20260503023005 69 135 0.0 0.0 0.00 0.00 0.00 56 1011.1
20260503022502 70 245 0.0 0.0 0.00 0.00 0.00 55 1011.1
20260503022002 71 246 0.0 0.0 0.00 0.00 0.00 55 1011.0
20260503021502 72 128 0.0 0.0 0.00 0.00 0.00 55 1011.0
20260503021002 72 132 0.0 0.0 0.00 0.00 0.00 54 1011.1
20260503020502 73 103 0.0 0.0 0.00 0.00 0.00 54 1011.1
20260503020002 74 124 0.0 0.0 0.00 0.00 0.00 52 1011.1
20260503015504 76 162 0.0 0.0 0.00 0.00 0.00 51 1011.0
20260503015005 77 124 0.0 1.7 0.00 0.00 0.00 51 1011.0
20260503014501 77 243 0.0 0.9 0.00 0.00 0.00 51 1011.1
20260503014001 78 211 0.0 0.0 0.00 0.00 0.00 52 1011.1
20260503013501 78 114 0.0 0.0 0.00 0.00 0.00 52 1011.1
20260503013002 79 110 0.0 0.0 0.00 0.00 0.00 51 1011.1
20260503012600 79 131 0.0 0.0 0.00 0.00 0.00 50 1011.1
20260503012100 79 211 0.0 0.0 0.00 0.00 0.00 50 1011.2
20260503011600 80 239 0.0 0.0 0.00 0.00 0.00 50 1011.0
20260503011500 80 242 0.0 0.0 0.00 0.00 0.00 49 1011.1
20260503011101 80 132 0.0 0.0 0.00 0.00 0.00 48 1011.0
20260503010601 80 204 0.0 0.0 0.00 0.00 0.00 49 1011.0
20260503010058 80 115 0.0 0.0 0.00 0.00 0.00 49 1011.0
20260503005605 81 78 0.0 0.0 0.00 0.00 0.00 50 1011.1
20260503005058 81 92 0.0 0.0 0.00 0.00 0.00 48 1011.1
20260503004605 81 153 0.0 0.0 0.00 0.00 0.00 49 1011.2
20260503004056 81 281 0.0 0.0 0.00 0.00 0.00 48 1011.2
20260503003555 81 193 0.0 0.0 0.00 0.00 0.00 49 1011.2
20260503003055 80 102 0.0 0.0 0.00 0.00 0.00 50 1011.2
20260503002557 80 243 0.0 0.0 0.00 0.00 0.00 47 1011.3
20260503002054 80 252 0.0 0.0 0.00 0.00 0.00 49 1011.3
20260503001556 80 187 0.0 0.0 0.00 0.00 0.00 50 1011.3
20260503001057 80 256 0.0 0.9 0.00 0.00 0.00 48 1011.3
20260503000553 80 270 0.0 0.9 0.00 0.00 0.00 49 1011.3
20260503000057 80 238 0.0 0.0 0.00 0.00 0.00 50 1011.4
20260502235551 80 71 0.0 0.0 0.00 0.00 0.00 49 1011.4
20260502235051 80 201 0.0 0.0 0.00 0.00 0.00 51 1011.4
20260502234602 80 240 0.0 0.0 0.00 0.00 0.00 50 1011.5
20260502234050 80 172 0.0 0.0 0.00 0.00 0.00 49 1011.5
20260502233550 80 131 0.0 0.0 0.00 0.00 0.00 51 1011.6
20260502233049 80 117 0.0 0.0 0.00 0.00 0.00 50 1011.7
20260502232548 80 125 0.0 0.0 0.00 0.00 0.00 51 1011.8
20260502232047 80 97 0.0 0.9 0.00 0.00 0.00 48 1011.8
20260502231546 80 125 0.0 0.0 0.00 0.00 0.00 49 1012.0
20260502231046 81 117 0.0 0.0 0.00 0.00 0.00 49 1012.0
20260502230545 81 153 0.0 0.0 0.00 0.00 0.00 49 1012.1
20260502230044 80 233 0.0 0.0 0.00 0.00 0.00 51 1012.1
20260502225547 80 124 0.0 0.0 0.00 0.00 0.00 51 1012.2